Location: Losili
(4.4086°N, 32.7049°E)
Time: 09:59:18
(UTC+00:00)

YAOGAN 1 - Pass Details

Date: 18 September 2019
Orbit: 619 x 621 km, 98.0° (Epoch: 15 October)

Event Time Altitude Azimuth Distance (km) Brightness Sun altitude
Rises 16:00:24 0° 144° (SE) 2,891 5.6 -4.1°
Reaches altitude 10° 16:02:58 10° 130° (SE) 1,984 4.7 -4.7°
Maximum altitude 16:06:22 23° 77° (ENE) 1,325 3.7 -5.6°
Drops below altitude 10° 16:09:45 10° 25° (NNE) 1,979 4.9 -6.4°
Sets 16:12:17 0° 11° (N) 2,882 5.9 -7.1°
